Regional Weather Roundup
Issued by NWS

Home | Current Version | Previous Version | Text Only | Print | Product List | Glossary On
Versions: 1 2 3 4 5 6 7 8 9 10 11 12 13 14 15 16 17 18 19 20 21 22 23 24 25 26 27 28 29 30 31 32 33 34 35 36 37 38 39 40 41 42 43 44 45 46 47 48 49 50
000
ASUS43 KMPX 191301
RWRMN
WEATHER ROUNDUP FOR MINNESOTA
NATIONAL WEATHER SERVICE TWIN CITIES/CHANHASSEN MN
800 AM CDT TUE SEP 19 2017


NOTE: "FAIR" INDICATES FEW OR NO CLOUDS BELOW 12,000 FEET WITH NO
SIGNIFICANT WEATHER AND/OR OBSTRUCTIONS TO VISIBILITY. N/A MEANS
CURRENT SKY AND/OR WEATHER CONDITIONS ARE NOT AVAILABLE.

MNZ060>063-068>070-191400-
   Twin Cities Metro

CITY           SKY/WX    TMP DP  RH WIND       PRES   REMARKS
TWIN CITIES    PTSUNNY   61  59  93 E9        29.92S
ST PAUL        PTSUNNY   60  59  96 SE6       29.94R
CRYSTAL        PTSUNNY   61  55  81 SE8       29.90F
BLAINE         PTSUNNY   63  59  88 E8        29.92S
LAKEVILLE      MOSUNNY   55  55 100 CALM      29.92S FOG
EDEN PRAIRIE   PTSUNNY   60  58  92 E7        29.90S
SOUTH ST PAUL  PTSUNNY   59  58  96 CALM      29.93R
LAKE ELMO      FAIR      59  57  94 SE3       29.95R
$$
MNZ001>005-007-008-013>017-022>024-027-028-191400-
   Northwest Minnesota

CITY           SKY/WX    TMP DP  RH WIND       PRES   REMARKS
BEMIDJI        CLOUDY    55  55 100 SE9       29.86F FOG
HALLOCK        CLOUDY    57  57 100 SE13      29.77F FOG
ROSEAU         CLOUDY    57  52  82 SE8       29.84F HAZE
WARROAD        CLOUDY    54  52  94 SE8       29.87S FOG
THIEF RVR FALL CLOUDY    55  55 100 E9        29.82F
CROOKSTON      CLOUDY    57  57 100 SE13      29.78F FOG
FOSSTON        CLOUDY    55  54  94 SE7       29.82S
DETROIT LAKES  FOG       55  55 100 SE15      29.82F VSB 3/4
MOORHEAD       CLOUDY    61  61 100 SE12      29.77S FOG
PARK RAPIDS    FOG       57  55  93 SE7       29.86F VSB 1
MAHNOMEN       CLOUDY    57  56  95 SE10G17   29.80F
$$
MNZ006-009>011-018-025>026-191400-
   North Central Minnesota

CITY           SKY/WX    TMP DP  RH WIND       PRES   REMARKS
BAUDETTE       CLOUDY    53  53 100 SE9       29.88S
FLAG ISLAND    CLOUDY    55  54  94 SE14      29.86S
INTL FALLS     CLOUDY    54  52  93 SE6       29.92S
WASKISH        CLOUDY    54  54 100 E5        29.89S FOG
BIG FORK       CLOUDY    55  54  94 S6        29.91S
LONGVILLE      CLOUDY    55  54  94 SE5       29.90S FOG
GRAND RAPIDS   FOG       55  54  96 SE5       29.94S VSB 3/4
CRANE LAKE     CLOUDY    54  52  94 CALM      29.95S
ORR            CLOUDY    54  52  94 SE3       29.91S
COOK           CLOUDY    55  54  94 SE5       29.94S
WALKER         CLOUDY    55  55  97 SE5       29.88F FOG
$$
MNZ012-019>021-037-191400-
   Northeast Minnesota

CITY           SKY/WX    TMP DP  RH WIND       PRES   REMARKS
DULUTH         CLOUDY    56  56 100 SE6       29.95S
ELY            CLOUDY    55  54  94 SE6       29.97R
HIBBING        CLOUDY    54  54 100 SE6       29.94S
EVELETH        CLOUDY    58  56  95 SE5       29.96F
DULUTH HARBOR  CLOUDY    61  57  88 E8        29.95F
SILVER BAY     CLOUDY    57  57 100 CALM      29.96S
$$
MNZ029>031-032-039>041-046>048-054>057-064-191400-
   West Central Minnesota

CITY           SKY/WX    TMP DP  RH WIND       PRES   REMARKS
FERGUS FALLS   CLOUDY    61  61 100 SE15      29.80F FOG
WHEATON        CLOUDY    64  61  88 SE13      29.79F FOG
MORRIS         CLOUDY    64  63  94 SE15      29.80F FOG
ALEXANDRIA     FOG       59  59 100 SE10      29.86S VSB 1/2
ELBOW LAKE     CLOUDY    60  60 100 E13G22    29.82S FOG
WADENA         FOG       55  55 100 SE10      29.85F VSB 1/4
GLENWOOD       FOG       59  59 100 SE8       29.86F VSB 1/4
APPLETON       CLOUDY    64  63  94 SE12      29.80F FOG
BENSON         CLOUDY    64  63  94 S12       29.84F FOG
ORTONVILLE     CLOUDY    64  63  94 NE12      29.78F FOG
MADISON        CLOUDY    66  66 100 SE13      29.80F FOG
WILLMAR        FOG       63  63 100 SE10      29.87F VSB 3/4
$$
MNZ033>034-036-042>043-049>051-058-059-191400-
   Central Minnesota

CITY           SKY/WX    TMP DP  RH WIND       PRES   REMARKS
ST CLOUD       CLOUDY    58  58 100 SE6       29.90S FOG
PAYNESVILLE    FOG       60  60 100 SE8       29.88S VSB 3/4
AITKIN         CLOUDY    55  54  94 SE7       29.90S FOG
PINE RIVER     CLOUDY    55  54  94 SE5       29.93R FOG
BRAINERD       CLOUDY    57  56  96 S5        29.90S FOG
STAPLES        CLOUDY    55  55 100 SE7       29.88R FOG
LONG PRAIRIE   RAIN      55  55 100 E7        29.88S VSB 1/4
LITTLE FALLS   FOG       55  54  94 SE6       29.89F VSB 1/2
LITCHFIELD     LGT RAIN  63  63 100 SE7       29.89S VSB 1/4
BUFFALO        CLOUDY    59  57  93 E5        29.91S FOG
MAPLE LAKE     FOG       60  60  98 SE3       29.91S VSB 3/4
HUTCHINSON     FOG       62  62 100 E7        29.90S VSB 1/4
$$
MNZ037-044-045-052-053-191400-
   East Central Minnesota

CITY           SKY/WX    TMP DP  RH WIND       PRES   REMARKS
PRINCETON      CLOUDY    61  57  88 SE3       29.92R
MORA           CLOUDY    55  54  94 SE6       29.94R
RUSH CITY      CLOUDY    59  56  89 SE7       29.93S
MOOSE LAKE     CLOUDY    57  55  94 CALM      29.92S
HINCKLEY       CLOUDY    59  57  94 SE3       29.93S
CLOQUET        CLOUDY    55  54  94 SE3       29.95R
MCGREGOR       CLOUDY    55  54  94 SE5       29.93S
$$
MNZ071>073-080-081-089-090-097-098-191400-
   Southwest Minnesota

CITY           SKY/WX    TMP DP  RH WIND       PRES   REMARKS
MONTEVIDEO     CLOUDY    64  64 100 S8        29.82F FOG
GRANITE FALLS  CLOUDY    66  65  96 E8        29.84F FOG
CANBY          CLOUDY    66  64  96 E10       29.82S FOG
MARSHALL       CLOUDY    65  64  97 SE9       29.83S FOG
REDWOOD FALLS  FOG       64  62  93 SE9       29.85S VSB 1/4
OLIVIA         FOG       61  59  94 SE9       29.86S VSB 1/4
PIPESTONE      FOG       64  64 100 S9G18     29.81F VSB 1
WORTHINGTON    FOG       64  63  96 SE10      29.85S VSB 1
JACKSON        FOG       63  63 100 SE12      29.88R VSB 3/4
TRACY          CLOUDY    66  66 100 SE9       29.84S FOG
SLAYTON        CLOUDY    64  63  95 SE7       29.85S FOG
$$
MNZ065>067-074>077-082>085-091>093-191400-
   South Central Minnesota

CITY           SKY/WX    TMP DP  RH WIND       PRES   REMARKS
MANKATO        FOG       62  62 100 SE10      29.90S VSB 3/4
NEW ULM        FOG       64  63  94 SE7       29.87F VSB 3/4
ST JAMES       CLOUDY    64  64 100 SE9       29.88S FOG
FAIRMONT       CLOUDY    64  63  96 SE9       29.88S FOG
GLENCOE        CLOUDY    61  61 100 E7        29.90R FOG
FARIBAULT      PTSUNNY   61  59  94 SE6       29.92F
OWATONNA       MOSUNNY   61  59  94 SE10      29.92S FOG
WASECA         CLOUDY    59  57  94 SE8       29.92F FOG
ALBERT LEA     FOG       63  63 100 SE7       29.92S VSB 1/4
$$
MNZ078>079-086>088-094>096-191400-
   Southeast Minnesota

CITY           SKY/WX    TMP DP  RH WIND       PRES   REMARKS
ROCHESTER      MOSUNNY   57  56  96 SE8       29.96R
RED WING       PTSUNNY   61  57  88 SE8       29.93S
STANTON        CLOUDY    61  57  88 CALM      29.92S
DODGE CENTER   MOSUNNY   57  57 100 E3        29.94S
WINONA         PTSUNNY   61  57  88 SE7       29.97R
AUSTIN         PTSUNNY   61  57  88 CALM      29.94R
PRESTON        CLOUDY    57  55  94 SE6       29.96S
$$
ABBREVIATIONS USED IN REMARKS
   TC - TEMPERATURES IN CELSIUS
  WCI - WIND CHILL INDEX
   HX - HEAT INDEX
  VSB - VISIBILITY
$$



USA.gov is the U.S. government's official web portal to all federal, state and local government web resources and services.